| time (UTC) | temp F | wind direction | speed MPH | gust MPH | rain 1hr in | rain 24hr in | rain mn in | humidity % | barometer mb |
| 20260831211529 | 58 | 240 | 0.0 | 0.0 | 0.00 | 0.25 | 0.25 | 95 | 1018.6 |
| 20260831210119 | 58 | 240 | 0.0 | 1.0 | 0.00 | 0.25 | 0.25 | 95 | 1018.4 |
| 20260831204545 | 58 | 219 | 0.0 | 2.0 | 0.02 | 0.25 | 0.25 | 95 | 1018.3 |
| 20260831203002 | 58 | 210 | 0.0 | 0.0 | 0.03 | 0.25 | 0.25 | 95 | 1018.2 |
| 20260831201529 | 58 | 210 | 0.0 | 0.0 | 0.03 | 0.25 | 0.25 | 94 | 1018.2 |
| 20260831200120 | 58 | 210 | 0.0 | 0.0 | 0.03 | 0.25 | 0.25 | 94 | 1018.1 |
| 20260831194525 | 59 | 207 | 0.0 | 0.0 | 0.01 | 0.23 | 0.23 | 92 | 1017.8 |
| 20260831193129 | 59 | 207 | 0.0 | 0.0 | 0.02 | 0.22 | 0.22 | 91 | 1017.7 |
| 20260831191544 | 59 | 252 | 0.0 | 7.0 | 0.02 | 0.22 | 0.22 | 89 | 1017.5 |
| 20260831190129 | 60 | 208 | 1.0 | 8.0 | 0.02 | 0.22 | 0.22 | 89 | 1017.2 |
| 20260831184613 | 60 | 211 | 4.0 | 10.0 | 0.02 | 0.22 | 0.22 | 89 | 1016.9 |
| 20260831183013 | 61 | 234 | 4.0 | 12.0 | 0.00 | 0.20 | 0.20 | 86 | 1016.4 |
| 20260831181553 | 61 | 113 | 1.0 | 7.0 | 0.02 | 0.20 | 0.20 | 86 | 1016.1 |
| 20260831180131 | 61 | 135 | 4.0 | 10.0 | 0.02 | 0.20 | 0.20 | 85 | 1015.6 |
| 20260831174614 | 61 | 196 | 3.0 | 7.0 | 0.02 | 0.20 | 0.20 | 86 | 1014.9 |
| 20260831173032 | 62 | 212 | 1.0 | 9.0 | 0.02 | 0.20 | 0.20 | 86 | 1014.6 |
| 20260831171634 | 62 | 201 | 4.0 | 9.0 | 0.02 | 0.18 | 0.18 | 85 | 1014.2 |
| 20260831170048 | 62 | 270 | 3.0 | 8.0 | 0.06 | 0.17 | 0.17 | 84 | 1014.0 |
| 20260831164549 | 63 | 105 | 0.0 | 9.0 | 0.06 | 0.17 | 0.17 | 82 | 1014.0 |
| 20260831163126 | 63 | 235 | 1.0 | 7.0 | 0.06 | 0.17 | 0.17 | 84 | 1013.7 |
| 20260831161611 | 64 | 144 | 3.0 | 9.0 | 0.05 | 0.17 | 0.17 | 81 | 1013.2 |
| 20260831160026 | 68 | 232 | 1.0 | 12.0 | 0.00 | 0.12 | 0.12 | 73 | 1012.0 |
| 20260831154626 | 69 | 314 | 7.0 | 16.0 | 0.00 | 0.12 | 0.12 | 70 | 1011.9 |
| 20260831153036 | 70 | 285 | 2.0 | 10.0 | 0.00 | 0.12 | 0.12 | 71 | 1011.2 |
| 20260831151627 | 71 | 162 | 3.0 | 12.0 | 0.00 | 0.12 | 0.12 | 68 | 1011.5 |
| 20260831150004 | 72 | 267 | 0.0 | 10.0 | 0.00 | 0.12 | 0.12 | 66 | 1011.6 |
| 20260831144616 | 72 | 148 | 1.0 | 9.0 | 0.00 | 0.12 | 0.12 | 66 | 1011.8 |
| 20260831143034 | 74 | 313 | 2.0 | 8.0 | 0.00 | 0.12 | 0.12 | 64 | 1011.5 |
| 20260831141615 | 74 | 306 | 1.0 | 5.0 | 0.00 | 0.12 | 0.12 | 63 | 1011.5 |
| 20260831140031 | 73 | 254 | 4.0 | 9.0 | 0.00 | 0.12 | 0.12 | 68 | 1011.4 |
| 20260831134628 | 73 | 227 | 0.0 | 1.0 | 0.00 | 0.12 | 0.12 | 72 | 1011.4 |
| 20260831133012 | 77 | 233 | 0.0 | 0.0 | 0.00 | 0.12 | 0.12 | 68 | 1011.4 |
| 20260831131549 | 77 | 210 | 0.0 | 2.0 | 0.00 | 0.12 | 0.12 | 71 | 1011.4 |
| 20260831130123 | 78 | 211 | 0.0 | 3.0 | 0.00 | 0.12 | 0.12 | 59 | 1011.6 |
| 20260831124532 | 78 | 111 | 0.0 | 2.0 | 0.00 | 0.12 | 0.12 | 59 | 1011.7 |
| 20260831123119 | 77 | 90 | 0.0 | 3.0 | 0.00 | 0.12 | 0.12 | 62 | 1011.8 |
| 20260831121524 | 75 | 240 | 0.0 | 2.0 | 0.00 | 0.12 | 0.12 | 71 | 1011.9 |
| 20260831120118 | 73 | 167 | 0.0 | 0.0 | 0.00 | 0.12 | 0.12 | 73 | 1012.1 |
| 20260831114544 | 72 | 192 | 0.0 | 1.0 | 0.00 | 0.12 | 0.12 | 76 | 1012.3 |
| 20260831113126 | 73 | 218 | 0.0 | 1.0 | 0.00 | 0.12 | 0.12 | 75 | 1012.5 |
| 20260831111540 | 71 | 211 | 0.0 | 2.0 | 0.00 | 0.12 | 0.12 | 81 | 1012.7 |
| 20260831110120 | 70 | 212 | 0.0 | 2.0 | 0.00 | 0.12 | 0.12 | 80 | 1012.9 |
| 20260831104514 | 70 | 226 | 0.0 | 2.0 | 0.00 | 0.12 | 0.12 | 76 | 1013.2 |
| 20260831103047 | 68 | 227 | 0.0 | 1.0 | 0.00 | 0.12 | 0.12 | 79 | 1013.3 |
| 20260831101502 | 68 | 240 | 0.0 | 1.0 | 0.00 | 0.12 | 0.12 | 82 | 1013.5 |
| 20260831100111 | 67 | 250 | 0.0 | 0.0 | 0.00 | 0.12 | 0.12 | 85 | 1013.6 |
| 20260831094525 | 66 | 264 | 0.0 | 2.0 | 0.00 | 0.12 | 0.12 | 87 | 1013.9 |
| 20260831093117 | 66 | 259 | 0.0 | 1.0 | 0.00 | 0.12 | 0.12 | 89 | 1013.9 |
| 20260831091507 | 64 | 232 | 0.0 | 1.0 | 0.00 | 0.12 | 0.12 | 90 | 1014.2 |
| 20260831090043 | 63 | 292 | 0.0 | 1.0 | 0.00 | 0.12 | 0.12 | 92 | 1014.3 |
| 20260831084501 | 63 | 261 | 0.0 | 1.0 | 0.00 | 0.12 | 0.12 | 93 | 1014.3 |
| 20260831083057 | 62 | 261 | 0.0 | 0.0 | 0.00 | 0.12 | 0.12 | 94 | 1014.3 |
| 20260831081621 | 61 | 261 | 0.0 | 0.0 | 0.00 | 0.12 | 0.12 | 94 | 1014.4 |
| 20260831080011 | 61 | 261 | 0.0 | 0.0 | 0.00 | 0.12 | 0.12 | 94 | 1014.4 |
| 20260831074612 | 61 | 261 | 0.0 | 0.0 | 0.00 | 0.12 | 0.12 | 94 | 1014.3 |
| 20260831071555 | 62 | 261 | 0.0 | 2.0 | 0.00 | 0.12 | 0.12 | 92 | 1014.3 |
| 20260831070002 | 62 | 267 | 0.0 | 1.0 | 0.00 | 0.12 | 0.12 | 93 | 1014.3 |
| 20260831064533 | 62 | 270 | 0.0 | 4.0 | 0.00 | 0.12 | 0.12 | 93 | 1014.4 |
| 20260831063003 | 61 | 281 | 0.0 | 0.0 | 0.00 | 0.12 | 0.12 | 94 | 1014.3 |
| 20260831061555 | 60 | 293 | 1.0 | 2.0 | 0.00 | 0.12 | 0.12 | 94 | 1014.3 |
| 20260831060130 | 60 | 290 | 0.0 | 2.0 | 0.00 | 0.12 | 0.12 | 95 | 1014.2 |
| 20260831054611 | 59 | 267 | 1.0 | 3.0 | 0.00 | 0.12 | 0.12 | 95 | 1014.3 |
| 20260831053053 | 59 | 160 | 0.0 | 0.0 | 0.00 | 0.12 | 0.12 | 94 | 1014.2 |
| 20260831051505 | 60 | 134 | 0.0 | 2.0 | 0.02 | 0.12 | 0.12 | 94 | 1014.2 |
| 20260831050035 | 59 | 55 | 1.0 | 5.0 | 0.05 | 0.12 | 0.12 | 94 | 1014.0 |
| 20260831044636 | 60 | 239 | 0.0 | 6.0 | 0.12 | 0.12 | 0.12 | 92 | 1014.4 |
| 20260831043002 | 60 | 200 | 0.0 | 3.0 | 0.12 | 0.12 | 0.12 | 94 | 1013.9 |
| 20260831041615 | 60 | 188 | 1.0 | 5.0 | 0.10 | 0.10 | 0.10 | 92 | 1013.7 |
| 20260831040044 | 59 | 147 | 3.0 | 8.0 | 0.07 | 0.07 | 0.07 | 93 | 1013.8 |
| 20260831034616 | 58 | 49 | 0.0 | 0.0 | 0.00 | 0.00 | 0.00 | 95 | 1013.5 |
| 20260831033030 | 58 | 306 | 0.0 | 0.0 | 0.00 | 0.00 | 0.00 | 94 | 1012.7 |
| 20260831031616 | 57 | 302 | 0.0 | 0.0 | 0.00 | 0.00 | 0.00 | 93 | 1012.5 |
| 20260831030024 | 58 | 302 | 0.0 | 0.0 | 0.00 | 0.00 | 0.00 | 93 | 1012.6 |
| 20260831024619 | 58 | 302 | 0.0 | 0.0 | 0.00 | 0.00 | 0.00 | 93 | 1012.5 |
| 20260831023043 | 58 | 303 | 0.0 | 0.0 | 0.00 | 0.00 | 0.00 | 92 | 1012.6 |
| 20260831021616 | 58 | 11 | 0.0 | 0.0 | 0.00 | 0.00 | 0.00 | 92 | 1012.5 |
| 20260831020026 | 59 | 11 | 0.0 | 0.0 | 0.00 | 0.00 | 0.00 | 91 | 1012.5 |
| 20260831014616 | 59 | 23 | 0.0 | 0.0 | 0.00 | 0.00 | 0.00 | 91 | 1012.5 |
| 20260831013002 | 59 | 303 | 0.0 | 0.0 | 0.00 | 0.00 | 0.00 | 91 | 1012.8 |
| 20260831011548 | 59 | 302 | 0.0 | 0.0 | 0.00 | 0.00 | 0.00 | 90 | 1012.7 |
| 20260831010126 | 60 | 355 | 0.0 | 0.0 | 0.00 | 0.00 | 0.00 | 89 | 1012.7 |
| 20260831004534 | 60 | 10 | 0.0 | 0.0 | 0.00 | 0.00 | 0.00 | 89 | 1012.5 |
| 20260831003124 | 61 | 32 | 0.0 | 0.0 | 0.00 | 0.00 | 0.00 | 89 | 1012.8 |
| 20260831001606 | 61 | 32 | 0.0 | 0.0 | 0.00 | 0.00 | 0.00 | 89 | 1012.8 |
| 20260831000032 | 60 | 32 | 0.0 | 0.0 | 0.00 | 0.00 | 0.00 | 89 | 1013.0 |
| 20260830234618 | 60 | 284 | 0.0 | 0.0 | 0.00 | 0.00 | 0.00 | 89 | 1012.9 |
| 20260830233008 | 60 | 289 | 0.0 | 0.0 | 0.00 | 0.00 | 0.00 | 89 | 1012.9 |
| 20260830231524 | 59 | 289 | 0.0 | 0.0 | 0.00 | 0.00 | 0.00 | 90 | 1012.9 |
| 20260830230118 | 59 | 289 | 0.0 | 0.0 | 0.00 | 0.00 | 0.00 | 90 | 1012.9 |
| 20260830224555 | 60 | 289 | 0.0 | 0.0 | 0.00 | 0.00 | 0.00 | 88 | 1012.9 |
| 20260830223002 | 61 | 290 | 0.0 | 0.0 | 0.00 | 0.00 | 0.00 | 88 | 1012.9 |
| 20260830221618 | 61 | 291 | 0.0 | 0.0 | 0.00 | 0.00 | 0.00 | 88 | 1013.0 |
| 20260830220032 | 60 | 291 | 0.0 | 1.0 | 0.00 | 0.00 | 0.00 | 88 | 1012.9 |
| 20260830214503 | 61 | 13 | 0.0 | 0.0 | 0.00 | 0.00 | 0.00 | 85 | 1012.8 |
| 20260830213047 | 62 | 13 | 0.0 | 0.0 | 0.00 | 0.00 | 0.00 | 84 | 1012.7 |